SILO ALERT LOG


Silo ID Alert Type Alert Message Silo Type Points Depth (mm) Strength Temperature (°C) Humidity (%) Height (mm) Volume (㎥) Weight (t) Flag Time
DJSAD01 Humidity 습도센서 측정값이 80% 초과 477 1469 7213 0.7 88.2 7310 302.644 191.332 0 2024-01-10 09:39:40.000
DJSAD02 Humidity 습도센서 측정값이 80% 초과 385 1131 4271 1.6 87.4 7648 316.602 200.156 11 2024-01-10 09:39:39.000
DJDJD03 Humidity 습도센서 측정값이 80% 초과 73 4618 5085 1.6 81 3061 370.89 234.477 0 2024-01-10 09:39:39.000
DJSAD03 Humidity 습도센서 측정값이 80% 초과 446 1692 6127 1.8 84.5 7087 293.398 185.486 0 2024-01-10 09:39:39.000
DJSSD05 Temperature 온도센서 측정값이 0도 미만 844 2553 4867 -45.4 43.6 5526 769.216 486.299 0 2024-01-10 09:39:33.000
DJSSD01 Humidity 습도센서 측정값이 80% 초과 787 2581 4636 5.1 81 5498 765.298 483.821 0 2024-01-10 09:39:33.000
DJDJD04 Humidity 습도센서 측정값이 80% 초과 282 4188 4448 2.6 81.6 3491 423.014 267.429 11 2024-01-10 09:39:33.000
DJSSD04 Temperature 온도센서 상태 이상 0 8200 0 -999 -999 -120 -16.702 0 31 2024-01-10 09:39:33.000
DJHNR01 Humidity 습도센서 측정값이 80% 초과 호퍼 472 4303 5056 3.4 99.9 11076 473.158 299.13 13 2024-01-10 09:39:33.000
DJSAD08 Humidity 습도센서 측정값이 80% 초과 595 2540 4911 6.3 85.4 5039 717.12 453.364 12 2024-01-10 09:39:33.000
DJSSD09 Temperature 온도센서 측정값이 0도 미만 115 3026 3208 -45.4 0 4653 647.699 409.475 11 2024-01-10 09:39:32.000
DJSAD12 Humidity 습도센서 측정값이 80% 초과 0 7700 0 2.2 86.8 -120 -17.075 0 31 2024-01-10 09:39:32.000
DJDJD01 Humidity 습도센서 측정값이 80% 초과 83 9311 3859 0.3 81.1 -1631 -197.689 0 0 2024-01-10 09:39:31.000
DJHNR11 Temperature 온도센서 측정값이 0도 미만 호퍼 120 2113 2556 -2.9 75.2 8266 124.352 78.616 11 2024-01-10 09:39:31.000
DJSAD07 Humidity 습도센서 측정값이 80% 초과 201 2600 3188 2.9 86.4 4979 708.548 447.944 11 2024-01-10 09:39:31.000
DJSAD18 Humidity 습도센서 측정값이 80% 초과 113 1358 5779 3.5 80.8 6221 619.573 391.694 11 2024-01-10 09:39:31.000
DJSSD11 Temperature 온도센서 측정값이 0도 미만 호퍼 444 7387 148 -1.7 77.5 3842 28.946 15.776 0 2024-01-10 09:39:31.000
DJHNR14 Temperature 온도센서 측정값이 0도 미만 호퍼 25 2536 4382 -1.7 73.4 7843 115.23 72.848 11 2024-01-10 09:39:30.000
DJSAD16 Humidity 습도센서 측정값이 80% 초과 86 6597 3398 3.1 80.8 982 97.793 61.825 11 2024-01-10 09:39:30.000
DJSAD11 Humidity 습도센서 측정값이 80% 초과 291 1493 13179 0.8 80.8 6086 866.091 547.543 11 2024-01-10 09:39:30.000

[첫 페이지] [10020] [10021] [10022] [10023] 10024 [10025] [10026] [10027] [10028] [마지막 페이지]